Location: Rowland
(34.5359°N, 79.2929°W)
Time: 19:03:54
(UTC+00:00)

Transit 2A - Pass Details

Date: 08 October 2022
Orbit: 598 x 959 km, 66.7° (Epoch: 03 December)

Event Time Altitude Azimuth Distance (km) Brightness Sun altitude
Rises 11:29:30 0° 342° (NNW) 3,008 8.8 1.7°
Reaches altitude 10° 11:31:52 10° 351° (N) 2,140 8.2 2.2°
Maximum altitude 11:36:25 38° 60° (ENE) 1,107 7.5 3.1°
Drops below altitude 10° 11:41:23 10° 128° (SE) 2,349 9.8 4.1°
Sets 11:44:05 0° 136° (SE) 3,340 10.3 4.6°
